Regional Weather Roundup
Issued by NWS

Home | Current Version | Previous Version | Graphics & Text | Print | Product List | Glossary On
Versions: 1 2 3 4 5 6 7 8 9 10 11 12 13 14 15 16 17 18 19 20 21 22 23 24 25 26 27 28 29 30 31 32 33 34 35 36 37 38 39 40 41 42 43 44 45 46 47 48 49 50
000
ASUS43 KBIS 271402
RWRND

NORTH DAKOTA REGIONAL WEATHER ROUNDUP
NATIONAL WEATHER SERVICE BISMARCK ND
900 AM CDT THU JUL 27 2017

NOTE: "FAIR" INDICATES FEW OR NO CLOUDS BELOW 12,000 FEET WITH NO
SIGNIFICANT WEATHER AND/OR OBSTRUCTIONS TO VISIBILITY.


NDZ001>003-009>011-017-271500-
NORTHWEST NORTH DAKOTA

CITY           SKY/WX    TMP DP  RH WIND       PRES   REMARKS
WILLISTON      LGT RAIN  67  59  75 S15G23    30.09R
MINOT          CLOUDY    70  59  68 S7        30.11S
MINOT AFB      CLOUDY    69  60  72 S5        30.10R
$$

NDZ018>021-031>035-040>046-271500-
SOUTHWEST NORTH DAKOTA

CITY           SKY/WX    TMP DP  RH WIND       PRES   REMARKS
BISMARCK       CLOUDY    68  61  78 E5        30.17F
DICKINSON      SUNNY     69  58  67 E17       30.12S
GARRISON         N/A     65  61  87 S5        30.12F
HETTINGER ARPT SUNNY     71  54  54 SE14      30.13S
$$

NDZ004>008-012>016-024-026-027-054-271500-
NORTHEAST NORTH DAKOTA

CITY           SKY/WX    TMP DP  RH WIND       PRES   REMARKS
GRAND FORKS    PTSUNNY   68  63  84 W3        30.13R
GRND FRKS AFB  CLOUDY    67  61  78 W5        30.14R
DEVILS LAKE    CLOUDY    68  62  81 CALM      30.16F
$$

NDZ022-023-025-028>030-036>039-047>053-271500-
SOUTHEAST NORTH DAKOTA

CITY           SKY/WX    TMP DP  RH WIND       PRES   REMARKS
FARGO          SUNNY     70  62  76 NW5       30.14R
JAMESTOWN      SUNNY     71  60  68 CALM      30.15F
$$





USA.gov is the U.S. government's official web portal to all federal, state and local government web resources and services.